Total_Precipitation_Accumulation
0.79 0.83 0.91 0.94 0.90 0.90 0.96 1.04 1.14 1.18 1.06 0.87 0.81 0.79 0.75 0.72 0.79 0.66 0.70 0.80 0.75 0.72 0.69 0.66 0.65 0.66 0.67 0.68 0.67 0.70 0.75 0.80 0.84 0.91 1.02 1.14 1.25 1.40
0.55 0.57 0.62 0.66 0.67 0.69 0.75 0.83 0.92 1.02 1.03 0.80 0.68 0.66 0.62 0.56 0.64 0.57 0.60 0.63 0.56 0.54 0.51 0.49 0.48 0.49 0.50 0.52 0.54 0.54 0.56 0.60 0.65 0.70 0.78 0.89 1.00 1.14
0.42 0.43 0.46 0.49 0.55 0.53 0.56 0.62 0.68 0.78 0.87 0.75 0.61 0.56 0.55 0.54 0.55 0.53 0.49 0.44 0.41 0.41 0.39 0.39 0.38 0.37 0.38 0.39 0.41 0.43 0.44 0.46 0.50 0.53 0.58 0.66 0.77 0.87
0.39 0.38 0.40 0.43 0.47 0.45 0.47 0.50 0.55 0.63 0.73 0.75 0.63 0.53 0.49 0.48 0.47 0.45 0.35 0.32 0.33 0.36 0.32 0.31 0.32 0.33 0.33 0.33 0.32 0.31 0.30 0.29 0.30 0.32 0.37 0.47 0.58 0.69
0.33 0.32 0.35 0.36 0.39 0.38 0.40 0.42 0.45 0.50 0.59 0.63 0.54 0.45 0.40 0.36 0.41 0.41 0.36 0.41 0.27 0.23 0.22 0.21 0.22 0.22 0.22 0.21 0.21 0.20 0.18 0.15 0.14 0.18 0.26 0.35 0.44 0.54
0.26 0.27 0.30 0.29 0.31 0.34 0.35 0.39 0.44 0.49 0.53 0.55 0.48 0.39 0.36 0.33 0.43 0.52 0.48 0.40 0.31 0.18 0.19 0.16 0.16 0.15 0.17 0.21 0.17 0.16 0.16 0.14 0.16 0.21 0.27 0.29 0.33 0.38
0.23 0.23 0.23 0.23 0.25 0.28 0.30 0.36 0.44 0.53 0.55 0.59 0.53 0.46 0.42 0.48 0.55 0.53 0.50 0.39 0.31 0.23 0.27 0.25 0.29 0.43 0.63 0.68 0.47 0.26 0.19 0.17 0.20 0.28 0.34 0.34 0.33 0.32
0.25 0.23 0.20 0.18 0.18 0.20 0.23 0.28 0.39 0.51 0.61 0.68 0.63 0.60 0.56 0.61 0.66 0.63 0.64 0.60 0.52 0.33 0.35 0.34 0.42 0.80 1.18 1.38 0.97 0.44 0.30 0.26 0.23 0.29 0.33 0.33 0.31 0.29
0.31 0.29 0.23 0.19 0.25 0.28 0.24 0.21 0.27 0.35 0.53 0.72 0.79 0.72 0.68 0.74 0.83 0.80 0.76 0.75 0.68 0.48 0.52 0.55 0.60 0.92 1.01 1.12 1.07 0.68 0.53 0.44 0.36 0.36 0.37 0.35 0.31 0.28
0.28 0.28 0.33 0.33 0.27 0.26 0.24 0.28 0.36 0.46 0.53 0.60 0.73 0.70 0.63 0.67 0.79 0.82 0.75 0.69 0.65 0.58 0.63 0.74 0.70 0.85 0.84 1.10 1.29 1.13 0.95 0.77 0.62 0.56 0.51 0.46 0.39 0.34
0.23 0.22 0.25 0.29 0.24 0.23 0.30 0.40 0.48 0.53 0.46 0.55 0.62 0.68 0.72 0.70 0.66 0.69 0.81 0.85 0.84 0.68 0.62 0.72 0.79 0.84 0.95 1.27 1.34 1.33 1.24 1.05 0.86 0.70 0.59 0.50 0.44 0.42
0.26 0.28 0.24 0.21 0.22 0.24 0.32 0.45 0.56 0.57 0.62 0.79 0.95 1.01 0.95 0.87 0.72 0.74 0.91 0.98 0.99 0.91 0.69 0.71 0.82 0.93 1.21 1.39 1.36 1.25 1.23 1.20 1.05 0.92 0.75 0.56 0.40 0.39
0.30 0.35 0.34 0.25 0.25 0.23 0.29 0.42 0.53 0.60 0.84 1.15 1.20 1.09 0.95 0.86 0.77 0.73 0.78 0.86 0.95 0.97 0.73 0.77 0.91 1.03 1.23 1.34 1.31 1.25 1.15 1.12 1.12 1.16 1.08 0.79 0.51 0.43
0.36 0.36 0.33 0.30 0.26 0.26 0.33 0.49 0.57 0.74 1.02 1.23 1.15 0.96 0.79 0.68 0.62 0.56 0.57 0.63 0.73 0.75 0.67 0.73 0.96 1.13 1.21 1.19 1.19 1.12 1.09 1.16 1.21 1.26 1.26 1.07 0.79 0.65
0.30 0.34 0.34 0.33 0.35 0.49 0.57 0.67 0.76 0.94 1.12 1.10 0.96 0.84 0.70 0.60 0.53 0.52 0.49 0.53 0.54 0.51 0.46 0.55 0.81 0.99 1.15 1.13 1.10 1.02 1.06 1.28 1.39 1.40 1.33 1.19 1.03 0.87
0.28 0.40 0.50 0.54 0.58 0.69 0.76 0.85 0.93 1.01 0.97 0.86 0.76 0.70 0.60 0.54 0.52 0.48 0.48 0.50 0.52 0.51 0.45 0.47 0.60 0.79 0.98 1.01 1.05 1.07 1.06 1.42 1.58 1.49 1.41 1.36 1.20 1.04
0.30 0.46 0.64 0.70 0.75 0.80 0.79 0.82 0.86 0.83 0.81 0.76 0.70 0.62 0.55 0.51 0.49 0.47 0.48 0.46 0.49 0.52 0.52 0.50 0.53 0.60 0.68 0.77 0.91 1.03 1.12 1.32 1.46 1.39 1.29 1.37 1.35 1.16
0.36 0.54 0.70 0.74 0.76 0.76 0.72 0.71 0.72 0.69 0.65 0.64 0.63 0.58 0.54 0.50 0.48 0.46 0.45 0.45 0.48 0.48 0.48 0.45 0.44 0.46 0.50 0.58 0.80 0.94 1.02 1.21 1.29 1.18 1.01 1.08 1.25 1.11
0.37 0.55 0.70 0.80 0.80 0.73 0.67 0.64 0.69 0.70 0.67 0.64 0.58 0.55 0.49 0.45 0.43 0.42 0.39 0.39 0.41 0.43 0.39 0.33 0.31 0.32 0.38 0.59 0.83 1.04 1.04 1.05 1.00 0.93 0.84 0.81 0.98 0.99
0.40 0.54 0.65 0.70 0.71 0.71 0.66 0.63 0.66 0.69 0.66 0.59 0.53 0.50 0.45 0.41 0.39 0.40 0.37 0.32 0.32 0.31 0.29 0.27 0.26 0.27 0.35 0.51 0.84 1.07 0.99 0.75 0.65 0.68 0.67 0.67 0.82 0.86
0.37 0.46 0.54 0.55 0.53 0.53 0.52 0.52 0.56 0.60 0.56 0.47 0.43 0.44 0.41 0.36 0.36 0.36 0.31 0.22 0.22 0.23 0.26 0.31 0.31 0.26 0.24 0.30 0.56 0.81 0.86 0.80 0.58 0.45 0.42 0.46 0.49 0.45
0.30 0.39 0.45 0.43 0.41 0.39 0.37 0.36 0.39 0.42 0.40 0.37 0.35 0.34 0.34 0.33 0.31 0.28 0.26 0.23 0.22 0.22 0.25 0.27 0.25 0.22 0.25 0.32 0.49 0.67 0.70 0.62 0.56 0.54 0.48 0.35 0.27 0.34
0.26 0.28 0.32 0.36 0.35 0.33 0.30 0.27 0.28 0.29 0.30 0.32 0.32 0.32 0.31 0.30 0.25 0.21 0.18 0.15 0.15 0.16 0.17 0.20 0.19 0.18 0.19 0.22 0.27 0.35 0.37 0.34 0.30 0.34 0.48 0.50 0.39 0.43